Theta_e
352 355 360 355 354 355 354 356 357 354 351 351 355 352 359 350 354 350 350 350 350 349 348 347 346 346 343 344 345 348 344 349 346 353 348 346 346 346 344 342 344 352 350 346
354 358 355 353 353 352 352 356 361 353 353 350 353 354 356 356 358 351 350 351 350 349 349 350 347 348 347 345 346 346 349 348 350 348 346 347 347 347 346 343 348 352 353 354
359 358 354 353 352 353 359 357 360 356 353 358 356 361 354 353 355 354 353 352 350 350 349 352 351 350 350 349 348 349 348 352 351 351 349 350 348 349 351 353 354 354 352 352
360 354 354 350 351 352 357 348 353 356 352 366 359 365 359 357 356 354 353 353 352 350 349 351 352 352 351 351 352 351 348 351 354 352 352 352 354 349 351 351 354 356 356 356
364 354 354 352 351 348 354 348 352 354 358 355 355 359 369 359 361 356 353 352 351 351 350 349 351 352 351 352 353 356 354 351 353 353 351 354 353 355 353 351 350 351 351 346
354 350 351 351 349 347 348 351 354 353 350 358 358 355 363 361 358 351 352 353 350 351 351 351 349 351 350 352 353 355 358 359 356 357 356 354 352 351 349 349 349 351 352 346
352 353 350 351 352 348 349 350 352 359 366 366 357 356 354 356 351 350 350 348 351 351 351 351 352 352 352 351 351 354 361 359 356 355 351 349 345 341 341 342 343 347 344 339
353 353 349 349 353 357 351 350 350 358 347 366 358 361 352 350 349 346 353 354 354 352 351 350 349 348 351 356 360 359 356 351 349 342 337 339 338 336 335 338 338 341 339 340
352 349 345 346 349 351 342 340 340 341 342 344 354 351 349 349 353 356 355 356 358 361 361 360 357 355 355 354 353 351 346 341 338 332 331 332 334 334 332 333 334 337 336 335
347 348 340 343 339 334 331 332 334 334 347 349 344 346 351 352 353 341 352 358 360 358 359 359 353 351 348 347 347 343 340 340 338 334 333 332 332 331 331 333 332 331 331 332
329 331 330 330 333 331 331 330 331 330 330 338 337 336 342 353 345 346 346 358 354 353 353 350 348 347 347 346 343 340 339 339 339 338 336 332 333 334 332 332 332 331 331 330
328 327 328 328 329 330 330 330 330 330 333 331 332 339 351 351 355 354 356 353 349 347 347 346 343 342 342 343 341 340 340 341 340 338 335 333 332 333 331 332 331 328 327 324
328 330 329 329 328 329 330 330 329 329 329 331 329 335 355 359 358 354 353 348 345 345 343 342 340 339 339 338 339 339 339 339 337 335 335 333 331 330 330 331 327 326 325 325
327 326 326 326 328 328 328 329 330 330 331 331 331 345 355 357 354 354 351 346 345 344 342 341 339 338 339 341 341 340 338 337 335 334 333 332 332 331 329 327 326 326 325 324
328 328 328 329 329 329 329 329 329 330 329 329 330 331 345 355 355 353 350 349 348 346 345 343 342 340 340 342 341 339 337 336 337 336 335 333 332 331 330 328 326 323 323 322
333 335 334 333 332 331 331 330 330 330 330 330 331 332 350 354 350 352 351 350 350 349 348 345 343 343 342 342 340 338 337 336 335 334 334 333 332 331 330 326 324 323 323 324
332 333 334 335 333 334 336 334 333 334 331 331 331 339 349 336 336 349 350 348 349 346 346 345 343 343 342 341 339 339 337 337 336 335 333 333 331 329 328 327 326 326 326 326
333 338 335 335 335 338 334 333 334 335 333 338 341 351 345 334 332 343 349 348 347 345 345 345 344 342 341 339 338 337 337 336 335 334 332 331 329 329 328 327 326 326 327 327
332 332 333 335 334 334 333 333 334 334 335 344 342 339 335 343 330 350 348 347 345 345 343 343 341 340 339 336 334 333 332 331 331 330 331 330 330 330 329 327 326 326 325 325
331 330 331 333 335 337 339 332 332 330 331 341 340 336 342 344 352 349 343 344 345 342 342 341 340 337 334 331 330 330 330 330 330 329 329 329 329 328 328 327 327 325 324 324
333 338 337 332 332 333 334 333 330 330 341 340 343 343 345 351 349 339 336 342 343 343 342 340 337 332 332 330 330 330 328 327 326 326 327 327 327 327 326 326 326 326 326 325
334 339 338 338 343 336 335 334 337 341 338 337 339 345 349 345 344 340 339 344 342 342 341 337 332 330 331 331 330 331 330 329 327 327 327 327 327 327 326 327 327 328 326 326
334 334 342 341 346 337 337 339 336 337 338 339 341 341 342 339 339 341 346 346 343 342 340 333 330 331 332 331 331 333 332 329 328 328 327 327 327 327 325 324 325 324 324 325
335 339 336 340 338 337 334 335 335 334 337 337 337 337 337 338 338 338 340 343 344 341 337 331 330 332 333 332 331 332 331 330 330 330 329 328 328 328 328 327 328 328 327 326
337 337 339 339 340 336 333 333 335 335 335 334 332 331 330 330 337 335 338 335 337 340 335 331 332 333 334 333 332 330 330 330 330 329 328 326 326 325 325 326 325 324 323 322
334 337 337 339 338 335 340 334 334 334 333 332 331 331 330 327 329 336 340 335 334 338 336 334 333 334 333 332 331 330 330 330 330 330 327 323 322 322 322 322 324 324 323 322
Wind_Speed
9 7 11 3 13 21 19 17 17 9 7 9 8 6 19 17 21 16 15 15 15 14 17 23 19 19 25 22 21 17 18 13 19 17 16 12 13 17 18 18 15 15 7 5
3 12 20 11 20 17 14 6 20 8 17 1 5 8 16 19 22 14 15 17 15 16 16 21 21 20 25 24 25 22 17 18 14 16 16 17 16 14 18 19 10 11 8 5
10 9 17 11 9 13 13 16 13 9 14 6 17 12 11 18 12 17 15 17 16 16 16 19 20 23 24 26 26 25 25 21 22 20 17 14 14 11 9 6 8 8 10 8
19 14 13 13 3 10 5 7 15 19 13 6 12 3 3 13 16 15 10 15 17 16 15 15 21 23 24 28 31 31 30 24 23 20 17 16 11 12 9 10 13 11 9 10
13 6 15 2 6 8 7 19 21 26 26 13 1 10 5 14 14 24 14 14 15 18 17 19 22 27 27 28 31 30 35 32 27 25 23 14 17 9 9 16 12 4 4 3
16 6 8 8 9 8 8 19 24 22 7 5 5 5 5 6 6 7 14 16 13 14 16 16 24 27 25 28 29 34 35 31 27 17 11 12 4 12 9 10 14 5 5 12
10 12 16 6 16 15 8 14 10 6 2 8 8 8 10 10 25 23 7 8 10 12 13 11 10 16 25 22 26 31 33 22 18 16 12 9 12 15 14 10 6 11 13 15
13 13 22 7 7 19 6 13 8 16 16 5 5 6 7 22 23 24 9 10 5 1 2 12 14 17 16 20 26 33 35 30 24 23 21 16 12 9 11 9 9 13 20 15
6 11 21 13 14 30 12 12 15 17 18 16 7 6 5 10 17 21 10 9 11 15 17 20 20 25 25 27 26 29 32 31 28 28 22 15 9 8 12 15 15 16 11 10
8 3 20 20 14 8 10 12 11 11 6 11 16 5 10 14 16 24 9 5 9 13 15 17 18 22 25 27 28 30 30 27 23 14 8 5 11 14 13 13 14 10 9 8
7 12 18 19 12 16 9 12 12 12 8 10 13 6 9 24 26 21 15 9 8 10 12 14 15 19 22 25 26 26 22 17 10 8 6 8 11 11 12 12 10 9 7 8
7 13 13 16 16 16 11 15 16 10 12 12 12 4 15 22 20 16 14 11 11 11 11 11 16 19 20 20 20 19 12 8 7 5 8 10 9 9 10 9 7 7 7 7
9 10 9 13 13 8 16 13 13 11 14 15 13 6 15 18 14 10 13 11 9 10 11 10 13 15 17 16 15 11 9 8 8 9 11 12 10 10 9 10 9 8 7 4
5 14 15 14 21 17 11 19 14 13 12 15 15 5 11 16 14 13 12 13 11 10 10 10 10 14 14 12 10 10 10 8 9 11 10 11 10 8 7 8 8 6 5 5
5 14 16 18 21 22 19 20 21 21 18 16 20 23 10 12 16 12 3 11 14 12 12 11 11 12 11 10 12 12 10 9 8 11 11 10 9 10 8 6 6 6 5 4
10 12 13 17 18 17 21 22 19 22 23 21 19 15 15 19 16 14 12 12 11 12 15 14 12 13 10 10 13 12 11 9 10 10 11 11 10 9 9 8 6 5 2 2
14 12 12 18 21 18 15 18 14 17 15 14 18 8 16 14 16 11 7 8 12 13 13 11 11 12 12 11 14 14 14 11 10 11 10 10 10 8 8 7 6 5 6 7
13 11 11 13 15 19 19 5 7 13 6 12 13 19 14 4 11 14 10 13 13 14 14 12 14 15 16 15 16 16 15 13 12 11 10 9 9 10 9 8 8 5 8 9
13 10 10 11 14 18 15 2 4 8 6 11 4 11 8 22 20 15 16 13 13 13 14 17 17 17 15 14 14 11 9 7 8 8 9 10 10 9 10 11 9 8 8 7
3 5 9 11 14 14 14 9 7 3 9 12 11 7 9 2 7 3 7 8 11 15 18 17 17 15 16 15 13 12 11 11 9 9 8 7 5 5 6 4 6 7 9 12
7 2 13 10 12 3 4 6 1 6 4 4 6 8 12 11 8 12 9 8 10 20 19 15 18 16 16 15 13 11 9 7 6 5 5 5 5 6 7 9 8 8 10 12
11 4 11 6 10 8 10 8 3 3 1 3 5 12 14 12 17 14 14 12 9 13 17 18 15 18 17 15 13 10 9 7 7 7 7 7 8 9 9 11 11 12 12 14
4 11 2 4 4 7 14 9 4 3 4 4 8 9 10 8 6 6 7 8 9 11 14 16 17 18 17 15 13 11 10 8 7 6 7 9 10 11 11 13 14 16 17 21
9 14 3 5 6 16 7 6 3 1 6 5 8 5 5 2 10 8 5 6 9 12 14 17 17 18 16 17 13 11 12 10 9 10 12 13 15 17 18 18 18 17 19 19
3 9 2 6 9 9 5 3 8 3 5 9 7 6 5 3 7 7 6 3 6 13 15 15 15 16 16 16 14 12 10 12 11 12 12 13 15 17 18 20 20 19 19 18
4 6 2 3 4 3 7 6 8 6 6 5 5 5 4 5 4 8 7 10 7 10 12 12 11 12 16 17 15 14 12 11 11 11 14 14 16 14 12 13 14 23 27 25
Wind_Direction
323 308 278 162 117 175 194 229 236 159 246 244 166 186 148 174 257 187 177 182 184 199 179 168 183 183 160 164 166 176 183 167 166 175 192 211 228 214 221 245 244 160 177 196
338 302 280 267 172 192 202 223 283 224 219 226 285 237 169 198 223 189 190 168 188 192 178 162 180 181 165 168 169 179 190 192 181 199 220 220 226 232 225 225 222 186 183 204
196 217 277 244 222 225 99 337 321 301 269 47 25 312 348 297 222 180 195 162 179 193 189 169 176 174 179 169 174 178 189 195 199 208 221 243 266 284 289 195 187 214 202 209
288 289 250 266 328 96 93 118 282 289 263 226 166 238 184 341 292 161 200 167 175 190 196 172 173 178 178 177 179 184 189 198 205 214 237 225 237 250 320 333 360 143 151 148
216 240 295 12 293 285 174 188 199 240 253 217 109 289 173 259 355 329 186 181 183 182 192 186 180 183 188 184 187 183 187 191 198 210 223 240 242 302 319 4 3 270 130 91
267 240 256 251 277 262 188 210 225 226 321 298 84 0 97 19 220 222 222 174 185 184 187 190 185 183 188 186 186 190 183 185 195 194 216 247 3 40 4 351 296 110 115 99
300 239 240 312 283 269 234 278 282 220 77 305 77 61 248 171 243 244 151 147 164 186 180 178 184 177 183 192 193 188 170 161 168 163 140 120 73 69 63 28 48 114 127 115
244 248 253 226 25 308 197 265 291 292 303 139 257 151 252 214 235 247 75 66 68 324 260 193 191 190 151 102 108 119 124 124 129 119 109 96 81 64 83 99 95 130 135 123
13 286 3 300 194 215 266 264 295 302 295 291 162 128 268 60 9 14 69 90 93 62 53 57 73 87 91 97 99 110 109 109 111 107 107 105 110 128 116 103 93 116 119 117
171 252 283 236 269 207 244 292 303 286 335 312 306 234 168 153 117 124 286 346 87 79 75 67 71 79 89 96 101 104 109 110 105 86 96 106 142 129 129 119 122 119 112 125
332 279 289 293 275 272 249 233 246 250 273 275 286 337 130 152 152 160 174 125 103 90 78 87 84 90 98 106 106 106 109 103 80 47 95 128 143 137 133 125 127 132 157 156
306 308 293 284 285 278 258 274 289 300 297 294 304 323 73 142 162 147 134 148 118 109 101 96 101 98 102 103 108 116 105 82 70 78 130 142 144 132 129 136 158 165 173 155
343 298 277 262 249 291 338 304 261 289 282 268 277 298 96 94 93 121 125 118 111 104 101 103 99 107 109 111 116 120 104 99 96 109 137 144 154 147 149 156 156 154 152 126
317 277 292 291 299 319 310 301 313 295 295 304 305 75 148 133 127 133 137 136 129 123 113 109 108 113 122 124 125 124 119 132 134 135 134 140 145 148 151 146 134 158 153 150
246 266 276 291 301 311 310 306 307 306 304 287 296 300 184 109 94 65 154 139 138 138 131 131 134 136 147 151 128 128 133 145 138 141 144 146 145 140 138 138 153 158 150 138
267 278 291 280 271 261 272 270 273 269 274 276 281 277 46 104 122 148 184 157 141 150 138 142 143 160 139 140 130 123 123 131 134 140 140 139 137 144 142 145 152 147 151 174
285 291 293 286 299 299 284 279 296 316 264 257 262 310 113 84 71 292 202 153 144 132 118 117 137 138 138 141 145 146 138 145 145 143 141 146 144 148 153 155 167 185 220 224
269 266 267 273 282 274 272 283 284 297 340 11 27 37 86 44 148 229 195 173 141 140 139 151 152 143 149 159 166 151 149 163 166 152 148 151 167 177 175 186 205 221 238 245
269 272 283 278 262 266 287 258 255 24 2 99 82 86 78 219 181 175 177 148 142 142 140 123 134 155 144 129 127 136 137 144 145 164 165 176 199 207 204 208 210 226 253 268
260 244 249 277 279 276 333 119 199 337 269 149 143 173 221 36 103 161 80 78 126 139 126 134 158 138 136 134 139 144 163 179 189 174 175 188 205 230 247 262 264 268 269 268
289 30 307 239 244 240 193 236 6 248 49 351 168 162 75 78 131 162 162 229 156 121 128 164 146 148 142 153 161 167 163 179 179 186 185 200 212 228 243 241 249 263 276 281
273 243 254 332 336 296 329 310 306 95 189 48 16 79 82 90 142 170 195 201 138 142 151 148 154 152 161 168 166 176 176 188 197 202 211 218 225 240 279 224 249 260 275 273
282 289 126 190 218 239 290 123 46 357 86 64 87 90 107 115 118 146 129 135 144 149 145 165 170 162 169 174 183 187 187 193 208 224 233 243 249 255 267 268 263 269 267 257
298 346 263 147 221 240 202 119 131 340 92 93 75 66 45 104 129 137 119 125 140 157 163 180 181 171 177 179 193 205 190 201 220 231 240 244 248 250 251 253 261 259 248 258
352 200 246 296 211 192 198 189 131 139 118 102 100 79 69 13 131 127 128 150 161 155 172 197 194 177 176 176 192 213 214 202 220 245 260 260 259 260 250 243 241 248 256 268
223 19 286 311 36 24 100 144 140 151 144 138 136 111 69 337 260 152 150 160 185 175 179 203 201 188 178 183 195 212 227 225 234 263 278 268 264 279 285 268 258 247 248 252